Location: Aiyekoto
(8.4333°N, 4.3667°E)
Time: 00:16:25
(UTC+00:00)

Tiangong - Visible Passes

Search period start: 01 August 2021 00:00
Search period end: 11 August 2021 00:00
Orbit: 373 x 386 km, 41.5° (Epoch: 31 July)

Date Brightness Start Highest point End Pass type
(mag) Time Alt. Az. Time Alt. Az. Time Alt. Az.
01 Aug 2.5 03:58:06 36° E 03:58:06 36° E 04:00:19 10° ENE visible
02 Aug 2.7 04:32:13 20° NW 04:32:40 21° NW 04:35:06 10° N visible
03 Aug 4.4 03:34:07 12° NE 03:34:07 12° NE 03:34:25 10° NE visible
